Lapse_Rate
-1.0 -1.3 -1.0 -0.4 -0.6 -1.0 -1.1 -1.0 -0.1 -0.5 -0.3 -0.1 0.0 -0.1 -0.2 -0.9 -1.0 -0.9 -1.2 -0.9 -1.1 -0.6
-1.0 -0.9 -0.8 -0.5 -0.9 -1.1 -0.9 -0.1 -0.4 -0.4 -0.9 -0.3 -0.1 -0.1 -0.6 -1.2 -1.0 -1.1 -1.3 -1.5 -1.4 -1.2
-0.4 -0.5 -0.4 -0.2 -0.4 -0.6 -0.6 -0.5 -0.4 -0.5 -0.9 -0.7 -0.6 -0.5 -1.0 -1.3 -1.2 -1.5 -1.6 -1.3 -1.4 -1.3
-0.1 -0.1 -0.4 -0.8 -0.8 -0.7 -0.2 -0.4 -0.2 -0.1 -0.2 -0.6 -0.7 -0.8 -1.1 -1.2 -0.8 -0.9 -0.7 -0.4 -0.5 -0.3
-0.1 -0.1 -0.4 -0.6 -0.2 -0.1 0.2 0.2 0.3 0.2 0.4 0.3 0.1 -0.4 -0.7 -0.8 0.3 -0.5 -0.6 -0.4 -0.2 -0.5
-0.2 -0.4 -0.7 -0.7 -0.4 -0.4 -0.4 0.1 0.1 0.3 0.7 1.2 1.0 0.7 0.5 0.4 0.1 0.0 -0.1 -0.1 0.0 -0.1
0.1 -0.2 -0.6 -0.7 -0.7 -0.6 -0.4 0.1 -0.3 0.1 1.2 1.4 1.5 1.3 1.3 0.9 0.6 -0.1 0.3 0.1 -0.1 -0.2
0.2 -0.0 -0.2 -0.3 -0.5 -0.8 -0.9 -0.3 -0.4 -0.0 -0.6 0.4 0.7 1.7 1.2 1.2 1.3 1.1 0.8 0.3 0.4 0.1
-0.1 -0.2 -0.1 -0.2 -0.2 -0.5 -0.8 -1.1 -1.0 -0.9 -0.0 0.1 0.9 2.8 3.7 3.2 1.5 1.5 1.6 1.6 0.3 0.7
-0.3 -0.5 -0.5 -0.7 -0.8 -0.8 -0.9 -1.1 -1.3 -1.5 -1.0 -0.3 0.4 2.5 4.0 4.6 3.4 1.8 1.5 1.3 1.3 1.1
-0.4 -0.7 -1.0 -1.4 -1.3 -1.3 -1.3 -1.0 -1.1 -1.0 -1.1 -1.0 -0.1 2.3 3.4 4.3 4.4 3.2 2.4 1.4 1.2 1.7
-0.5 -0.9 -0.9 -1.1 -1.3 -1.2 -1.2 -1.2 -1.3 -1.4 -1.4 -1.5 -0.8 1.3 2.7 3.6 2.9 3.1 2.2 1.9 2.0 2.7
-0.3 -0.4 -0.5 -0.7 -0.9 -1.0 -1.0 -0.7 -1.4 -1.2 -2.0 -1.1 -0.9 0.3 1.9 3.0 2.1 1.8 1.6 0.7 2.1 4.0
-0.7 -0.8 -0.8 -0.8 -1.1 -1.3 -1.5 -1.8 -1.4 -2.1 -0.9 -2.0 -1.7 -1.3 1.6 2.9 2.3 1.7 1.6 2.4 2.1 1.9
Wind_Speed
7 4 4 5 4 4 4 4 4 6 8 7 7 6 4 1 2 3 3 4 3 2
6 7 6 7 5 4 4 4 7 8 6 8 8 7 5 4 4 4 4 5 4 3
7 7 6 5 7 7 6 6 6 6 6 6 7 7 6 5 6 6 4 4 5 4
7 7 6 6 7 7 7 7 7 7 7 7 7 7 6 6 6 6 6 4 5 6
6 6 6 7 8 7 9 7 9 7 7 7 8 7 8 8 7 7 7 7 6 7
6 6 7 7 7 7 8 9 7 7 9 10 10 9 10 9 8 8 8 7 7 7
5 6 6 6 7 7 7 9 8 9 11 10 10 9 9 9 10 9 9 9 8 8
6 6 6 6 6 6 6 7 8 8 8 10 9 9 10 10 10 10 9 8 8 8
6 6 6 6 7 6 6 7 6 7 8 8 8 16 20 15 9 10 10 10 8 8
6 6 6 6 7 7 7 5 7 7 6 9 10 17 19 20 10 9 10 10 8 7
6 6 7 7 7 6 5 6 6 7 7 7 9 17 18 19 12 10 12 11 10 10
6 7 7 8 8 6 6 6 5 6 7 7 11 15 17 14 8 9 12 9 10 10
6 6 7 7 8 5 4 8 6 9 6 11 10 14 16 13 5 7 6 6 9 19
6 7 7 6 4 5 6 6 8 7 9 8 8 10 16 17 7 8 6 7 7 7
Wind_Direction
231 225 228 230 227 236 231 238 247 239 239 241 239 239 238 250 250 234 237 237 227 235
235 232 232 236 231 240 245 247 243 236 233 235 235 231 222 228 237 227 230 235 230 221
237 236 240 244 244 236 244 237 244 239 230 233 231 227 217 224 228 223 230 226 224 230
246 239 238 235 240 235 239 232 234 231 228 227 226 222 223 229 233 234 240 240 234 237
252 243 243 244 245 238 241 234 234 228 229 230 227 218 219 225 222 221 229 230 231 236
277 265 257 254 250 238 239 244 239 225 230 234 229 224 224 221 223 222 223 219 221 226
313 290 275 270 262 254 243 251 245 236 240 236 233 225 225 217 222 220 225 222 217 217
317 312 305 300 293 281 265 256 249 248 236 238 229 234 226 222 225 225 230 229 223 221
337 331 324 318 314 303 289 279 269 263 258 258 249 250 240 227 219 222 224 232 225 218
334 327 322 315 312 306 299 288 282 272 257 257 257 260 255 245 229 226 224 224 219 218
327 314 309 315 312 304 292 292 290 286 265 257 267 268 263 254 245 231 233 225 217 217
316 316 317 310 303 296 291 298 285 278 287 268 275 270 268 263 243 235 234 229 223 218
303 292 294 290 294 283 276 289 290 292 264 268 272 278 275 268 232 238 235 219 225 229
287 282 277 284 276 278 286 284 291 275 287 269 257 275 274 263 238 234 230 234 227 220